{"data":{"norad_id":62036,"epoch":"2026-05-25T03:01:26.793984Z","epoch_age_seconds":63420,"freshness":"FRESH","line1":"1 62036U 24216E   26145.12600456  .00012932  00000+0  47850-3 0  9997","line2":"2 62036  43.0009 184.8202 0001351 260.5188  99.5511 15.27590427 85634","mean_motion":15.27590427,"eccentricity":0.0001351,"inclination_deg":43.0009,"raan_deg":184.8202,"arg_perigee_deg":260.5188,"mean_anomaly_deg":99.5511,"bstar":0.0004785,"rev_number":8563,"period_min":94.266105269328,"perigee_km":482.09093200467,"apogee_km":483.94481605164,"semimajor_km":6861.1548740282,"source":"CELESTRAK","updated_at":"2026-05-25T13:38:19.524215Z"}}